Regional Weather Roundup
Issued by NWS

Home | Current Version | Previous Version | Graphics & Text | Print | Product List | Glossary On
Versions: 1 2 3 4 5 6 7 8 9 10 11 12 13 14 15 16 17 18 19 20 21 22 23 24 25 26 27 28 29 30 31 32 33 34 35 36 37 38 39 40 41 42 43 44 45 46 47 48 49 50
000
ASUS43 KLSX 211307
RWRMO

WEATHER SUMMARY FOR MISSOURI
NATIONAL WEATHER SERVICE SPRINGFIELD MO
800 AM CDT SUN SEP 21 2014

NOTE: "FAIR" INDICATES FEW OR NO CLOUDS BELOW 12,000 FEET WITH NO
       SIGNIFICANT WEATHER AND/OR OBSTRUCTIONS TO VISIBILITY.
       CURRENT SKY AND/OR WEATHER CONDITIONS ARE NOT AVAILABLE FOR
       CHILLICOTHE AND FARMINGTON.

MOZ001>031-035>038-043-044-053-054-211400-
...NORTHERN AND WESTERN MISSOURI...

CITY           SKY/WX    TMP DP  RH WIND       PRES   REMARKS
KANSAS CTY INT PTCLDY    58  53  84 W7        30.15R
KANSAS C DTWN  CLEAR     60  54  80 CALM      30.14R
LEE`S SUMMIT   CLEAR     56  51  84 W3        30.14R
ST JOSEPH      CLEAR     53  51  93 CALM      30.15R
CHILLICOTHE      N/A     58  51  78 VRB3      30.12R
KIRKSVILLE     SUNNY     57  51  80 W6        30.07R

$$
MOZ066>068-077>081-088>096-101>105-211400-
...SOUTHWEST MISSOURI...

CITY           SKY/WX    TMP DP  RH WIND       PRES   REMARKS
SPRINGFIELD    SUNNY     69  66  90 N12       30.09R
JOPLIN         MOSUNNY   67  62  84 N8        30.12R

$$
MOZ032>034-039>042-045>050-055>058-069>072-211400-
...CENTRAL MISSOURI...

CITY           SKY/WX    TMP DP  RH WIND       PRES   REMARKS
COLUMBIA       SUNNY     61  53  75 NW5       30.08R
JEFFERSON CITY SUNNY     62  54  74 W3        30.08R
ROLLA          SUNNY     61  53  75 N10       30.06R
SEDALIA        SUNNY     60  51  72 W5        30.11R
WHITEMAN AFB   SUNNY     59  55  86 NW6       30.11R
OSAGE BEACH    SUNNY     63  48  59 N5        30.10R

$$
MOZ051-052-059>065-211400-
...EAST CENTRAL MISSOURI...

CITY           SKY/WX    TMP DP  RH WIND       PRES   REMARKS
ST LOUIS INTL  SUNNY     66  56  70 NW6       30.03R
SPIRIT OF STL  SUNNY     64  55  72 NW3       30.03R
ST CHARLES     SUNNY     64  53  67 NW5       30.01R

$$
MOZ072>076-082>087-097>100-106>115-211400-
...SOUTH CENTRAL AND SOUTHEAST MISSOURI...

CITY           SKY/WX    TMP DP  RH WIND       PRES   REMARKS
CAPE GIRARDEAU SUNNY     71  68  90 W6        29.97R
FARMINGTON     PTSUNNY   70  64  83 N10G17    30.04R
POPLAR BLUFF   CLOUDY    71  67  87 CALM      29.98R
WEST PLAINS    MOSUNNY   70  66  87 W6        30.06R

$$



USA.gov is the U.S. government's official web portal to all federal, state and local government web resources and services.